Marshfield, MA

3:17 AM EST on November 17, 2019 (GMT -0500)
Marshfield

Weather History for KGHG - July, 2019

Change the Weather History Date:

Wednesday, July 24, 2019

  Actual Average (KPYM) Record (KPYM)
Temperature  
Mean Temperature 68 °F -  
Max Temperature 75 °F 81 °F 98 °F (1952)
Min Temperature 62 °F 59 °F 48 °F (1985)
Cooling Degree Days 4    
Growing Degree Days 18 (Base 50)    
Moisture  
Dew Point 61 °F    
Average Humidity 82    
Maximum Humidity 100    
Minimum Humidity 47    
Precipitation  
Precipitation 0.01 in - - ()
Sea Level Pressure  
Sea Level Pressure 29.94 in    
Wind  
Wind Speed 2 mph (ENE)    
Max Wind Speed 7 mph    
Max Gust Speed 14 mph    
Visibility 10 miles    
Events Rain    
Averages and records for this station are not official NWS values.
T = Trace of Precipitation, MM = Missing Value Source: NWS Daily Summary

Daily Weather History Graph

Daily Weather History Graph

Search for Another Location

Airport or City:

Astronomy

Jul. 24, 2019 Rise Set
Actual Time 5:27 AM EDT 8:10 PM EDT
Civil Twilight 4:55 AM EDT 8:42 PM EDT
Nautical Twilight 4:14 AM EDT 9:23 PM EDT
Astronomical Twilight 3:27 AM EDT 10:09 PM EDT
Moon No Moon Rise 12:43 PM EDT (7/24)
Length of Visible Light 15h 47m
Length of Day
14h 42m
Waning Gibbous, 54% of the Moon is Illuminated
Jul 24
Waning Gibbous
Jul 24
Last Quarter
Jul 31
New
Aug 7
First Quarter
Aug 15
Full

Hourly Weather History & Observations

Time (EDT) Temp. Dew Point Humidity Pressure Visibility Wind Dir Wind Speed Gust Speed Precip Events Conditions
12:15 AM 62.6 °F 62.6 °F 100% 29.90 in 10.0 mi Calm Calm - N/A   Clear
12:35 AM 62.6 °F 62.6 °F 100% 29.91 in 10.0 mi Calm Calm - N/A   Clear
12:55 AM 62.6 °F 62.6 °F 100% 29.92 in 10.0 mi SSW 3.5 mph - N/A   Clear
1:15 AM 62.6 °F 62.6 °F 100% 29.92 in 10.0 mi Calm Calm - N/A   Clear
1:35 AM 62.6 °F 62.6 °F 100% 29.92 in 10.0 mi Calm Calm - N/A   Partly Cloudy
1:55 AM 62.6 °F 62.6 °F 100% 29.91 in 10.0 mi Calm Calm - N/A   Clear
2:15 AM 62.6 °F 62.6 °F 100% 29.92 in 10.0 mi West 3.5 mph - N/A   Light Drizzle
2:35 AM 62.6 °F 62.6 °F 100% 29.91 in 10.0 mi Calm Calm - N/A   Light Drizzle
2:55 AM 62.6 °F 62.6 °F 100% 29.90 in 10.0 mi Calm Calm - N/A   Partly Cloudy
3:15 AM 62.6 °F 62.6 °F 100% 29.90 in 10.0 mi Calm Calm - N/A   Partly Cloudy
3:35 AM 62.6 °F 62.6 °F 100% 29.87 in 8.0 mi Calm Calm - N/A   Light Drizzle
3:55 AM 62.6 °F 62.6 °F 100% 29.86 in 7.0 mi Calm Calm - N/A Rain Light Rain
4:15 AM 64.4 °F 64.4 °F 100% 29.87 in 9.0 mi Calm Calm - N/A   Scattered Clouds
4:35 AM 62.6 °F 62.6 °F 100% 29.87 in 8.0 mi Calm Calm - N/A   Clear
4:55 AM 62.6 °F 62.6 °F 100% 29.89 in 9.0 mi Calm Calm - N/A   Clear
5:15 AM 62.6 °F 62.6 °F 100% 29.90 in 9.0 mi Calm Calm - N/A   Clear
5:35 AM 62.6 °F 62.6 °F 100% 29.90 in 9.0 mi Calm Calm - N/A   Partly Cloudy
5:55 AM 62.6 °F 62.6 °F 100% 29.90 in 9.0 mi Calm Calm - 0.01 in   Mostly Cloudy
6:15 AM 62.6 °F 62.6 °F 100% 29.91 in 9.0 mi Calm Calm - N/A   Overcast
6:35 AM 62.6 °F 62.6 °F 100% 29.92 in 10.0 mi Calm Calm - N/A   Overcast
6:55 AM 64.4 °F 64.4 °F 100% 29.92 in 10.0 mi Calm Calm - N/A   Overcast
7:15 AM 64.4 °F 64.4 °F 100% 29.92 in 9.0 mi Calm Calm - N/A   Mostly Cloudy
7:35 AM 64.4 °F 64.4 °F 100% 29.93 in 10.0 mi Calm Calm - N/A   Mostly Cloudy
7:55 AM 64.4 °F 64.4 °F 100% 29.94 in 10.0 mi Calm Calm - N/A   Overcast
8:15 AM 66.2 °F 66.2 °F 100% 29.93 in 10.0 mi Calm Calm - N/A   Overcast
8:35 AM 66.2 °F 66.2 °F 100% 29.94 in 10.0 mi Calm Calm - N/A   Mostly Cloudy
8:55 AM 68.0 °F 66.2 °F 94% 29.94 in 10.0 mi Calm Calm - N/A   Overcast
9:15 AM 68.0 °F 62.6 °F 83% 29.94 in 10.0 mi Calm Calm - N/A   Scattered Clouds
9:35 AM 69.8 °F 60.8 °F 73% 29.94 in 10.0 mi NNE 4.6 mph - N/A   Scattered Clouds
9:55 AM 69.8 °F 62.6 °F 78% 29.94 in 10.0 mi NNE 3.5 mph - N/A   Mostly Cloudy
10:15 AM 69.8 °F 62.6 °F 78% 29.94 in 10.0 mi Variable 4.6 mph - N/A   Scattered Clouds
10:35 AM 71.6 °F 60.8 °F 69% 29.94 in 10.0 mi Variable 3.5 mph - N/A   Partly Cloudy
10:55 AM 71.6 °F 60.8 °F 69% 29.94 in 10.0 mi Variable 5.8 mph - N/A   Clear
11:15 AM 71.6 °F 60.8 °F 69% 29.94 in 10.0 mi Variable 6.9 mph - N/A   Clear
11:35 AM 71.6 °F 62.6 °F 73% 29.94 in 10.0 mi Variable 5.8 mph 11.5 mph N/A   Clear
11:55 AM 71.6 °F 60.8 °F 69% 29.94 in 10.0 mi Variable 5.8 mph 13.8 mph N/A   Clear
12:15 PM 71.6 °F 59.0 °F 64% 29.95 in 10.0 mi Variable 4.6 mph 11.5 mph N/A   Partly Cloudy
12:35 PM 71.6 °F 59.0 °F 64% 29.95 in 10.0 mi Variable 5.8 mph - N/A   Clear
12:55 PM 73.4 °F 59.0 °F 61% 29.94 in 10.0 mi Variable 4.6 mph - N/A   Clear
1:15 PM 73.4 °F 57.2 °F 57% 29.94 in 10.0 mi Variable 6.9 mph - N/A   Clear
1:35 PM 73.4 °F 57.2 °F 57% 29.94 in 10.0 mi NE 6.9 mph - N/A   Clear
1:55 PM 73.4 °F 57.2 °F 57% 29.93 in 10.0 mi Variable 3.5 mph - N/A   Scattered Clouds
2:15 PM 73.4 °F 57.2 °F 57% 29.93 in 10.0 mi ENE 5.8 mph - N/A   Clear
2:35 PM 73.4 °F 57.2 °F 57% 29.93 in 10.0 mi ENE 5.8 mph - N/A   Clear
2:55 PM 73.4 °F 57.2 °F 57% 29.92 in 10.0 mi ENE 5.8 mph - N/A   Clear
3:15 PM 73.4 °F 55.4 °F 53% 29.92 in 10.0 mi NE 4.6 mph - N/A   Clear
3:35 PM 73.4 °F 55.4 °F 53% 29.92 in 10.0 mi NE 4.6 mph - N/A   Clear
3:55 PM 75.2 °F 55.4 °F 50% 29.92 in 10.0 mi ENE 5.8 mph - N/A   Clear
4:15 PM 75.2 °F 55.4 °F 50% 29.91 in 10.0 mi ENE 5.8 mph - N/A   Clear
4:35 PM 75.2 °F 53.6 °F 47% 29.91 in 10.0 mi ENE 5.8 mph - N/A   Clear
4:55 PM 75.2 °F 55.4 °F 50% 29.92 in 10.0 mi Variable 3.5 mph - N/A   Clear
5:15 PM 75.2 °F 59.0 °F 57% 29.93 in 10.0 mi Variable 5.8 mph - N/A   Clear
5:35 PM 73.4 °F 59.0 °F 61% 29.93 in 10.0 mi SE 5.8 mph - N/A   Clear
5:55 PM 73.4 °F 59.0 °F 61% 29.94 in 10.0 mi SE 5.8 mph - N/A   Clear
6:15 PM 73.4 °F 59.0 °F 61% 29.95 in 10.0 mi SE 4.6 mph - N/A   Clear
6:35 PM 71.6 °F 59.0 °F 64% 29.95 in 10.0 mi Calm Calm - N/A   Clear
6:55 PM 71.6 °F 60.8 °F 69% 29.95 in 10.0 mi ESE 3.5 mph - N/A   Clear
7:15 PM 71.6 °F 60.8 °F 69% 29.96 in 10.0 mi SE 4.6 mph - N/A   Clear
7:35 PM 69.8 °F 59.0 °F 68% 29.96 in 10.0 mi Calm Calm - N/A   Clear
7:55 PM 69.8 °F 60.8 °F 73% 29.97 in 10.0 mi Calm Calm - N/A   Clear
8:15 PM 68.0 °F 60.8 °F 78% 29.97 in 10.0 mi Calm Calm - N/A   Clear
8:35 PM 66.2 °F 62.6 °F 88% 29.98 in 10.0 mi Calm Calm - N/A   Clear
8:55 PM 64.4 °F 62.6 °F 94% 29.98 in 10.0 mi Calm Calm - N/A   Clear
9:15 PM 64.4 °F 62.6 °F 94% 29.99 in 10.0 mi Calm Calm - N/A   Clear
9:35 PM 64.4 °F 62.6 °F 94% 29.99 in 10.0 mi Calm Calm - N/A   Clear
9:55 PM 64.4 °F 62.6 °F 94% 30.00 in 10.0 mi Calm Calm - N/A   Clear
10:15 PM 64.4 °F 62.6 °F 94% 30.00 in 10.0 mi Calm Calm - N/A   Clear
10:35 PM 64.4 °F 62.6 °F 94% 30.00 in 10.0 mi WSW 3.5 mph - N/A   Clear
10:55 PM 64.4 °F 62.6 °F 94% 30.01 in 10.0 mi Calm Calm - N/A   Clear
11:15 PM 62.6 °F 62.6 °F 100% 30.01 in 10.0 mi Calm Calm - N/A   Clear
11:35 PM 62.6 °F 62.6 °F 100% 30.00 in 10.0 mi West 3.5 mph - N/A   Clear
11:55 PM 62.6 °F 62.6 °F 100% 30.00 in 10.0 mi Calm Calm - N/A   Clear